DW3800 Weather Reports


time (UTC)temp
C
wind
direction
speed
KPH
gust
KPH
rain 1hr
cm
rain 24hr
cm
rain mn
cm
humidity
%
barometer
mb
20260506044833 3 258 4.8 8.0 0.00 0.00 0.00 60 1015.4
20260506044331 3 240 0.0 4.8 0.00 0.00 0.00 59 1015.5
20260506043828 3 167 1.6 3.2 0.00 0.00 0.00 60 1015.5
20260506043325 3 225 0.0 4.8 0.00 0.00 0.00 60 1015.5
20260506042823 3 188 4.8 11.3 0.00 0.00 0.00 58 1015.5
20260506042322 3 190 1.6 11.3 0.00 0.00 0.00 59 1015.5
20260506041821 3 235 1.6 8.0 0.00 0.00 0.00 59 1015.6
20260506041317 3 256 3.2 8.0 0.00 0.00 0.00 59 1015.2
20260506040814 4 206 0.0 1.6 0.00 0.00 0.00 59 1015.5
20260506040312 4 227 4.8 8.0 0.00 0.00 0.00 58 1015.5
20260506035808 4 265 4.8 8.0 0.00 0.00 0.00 58 1015.4
20260506035306 4 263 4.8 11.3 0.00 0.00 0.00 57 1015.1
20260506034803 4 202 6.4 11.3 0.00 0.00 0.00 57 1015.2
20260506034259 4 168 3.2 4.8 0.00 0.00 0.00 58 1015.4
20260506033756 5 190 1.6 4.8 0.00 0.00 0.00 57 1015.4
20260506033253 5 251 3.2 8.0 0.00 0.00 0.00 57 1015.1
20260506032750 5 252 1.6 14.5 0.00 0.00 0.00 56 1015.1
20260506032247 5 217 4.8 12.9 0.00 0.00 0.00 56 1015.0
20260506031744 5 223 6.4 14.5 0.00 0.00 0.00 56 1015.2
20260506031241 5 257 3.2 9.7 0.00 0.00 0.00 56 1015.1
20260506030739 5 211 8.0 12.9 0.00 0.00 0.00 56 1015.2
20260506030237 5 191 3.2 9.7 0.00 0.00 0.00 55 1015.4
20260506025733 5 199 3.2 11.3 0.00 0.00 0.00 55 1014.8
20260506025230 5 255 3.2 3.2 0.00 0.00 0.00 55 1014.9
20260506024726 5 214 0.0 3.2 0.00 0.00 0.00 55 1014.8
20260506024223 5 240 8.0 9.7 0.00 0.00 0.00 54 1014.7
20260506023720 5 11 1.6 9.7 0.00 0.00 0.00 54 1014.7
20260506023217 6 220 0.0 4.8 0.00 0.00 0.00 54 1014.8
20260506022713 6 215 3.2 9.7 0.00 0.00 0.00 52 1014.7
20260506022211 6 190 6.4 8.0 0.00 0.00 0.00 52 1014.3
20260506021709 6 212 6.4 11.3 0.00 0.00 0.00 52 1014.3
20260506021206 6 186 4.8 9.7 0.00 0.00 0.00 52 1014.1
20260506020703 6 239 8.0 14.5 0.00 0.00 0.00 51 1014.2
20260506020201 6 251 8.0 12.9 0.00 0.00 0.00 51 1013.9
20260506015658 6 249 6.4 12.9 0.00 0.00 0.00 51 1013.7
20260506015155 6 266 1.6 3.2 0.00 0.00 0.00 51 1013.8
20260506014652 7 180 4.8 12.9 0.00 0.00 0.00 49 1013.7
20260506014148 7 233 6.4 11.3 0.00 0.00 0.00 49 1013.6
20260506013646 7 176 1.6 9.7 0.00 0.00 0.00 49 1013.7
20260506013143 7 267 8.0 16.1 0.00 0.00 0.00 49 1013.3
20260506012639 7 214 3.2 8.0 0.00 0.00 0.00 49 1013.6
20260506012136 7 245 3.2 14.5 0.00 0.00 0.00 48 1013.5
20260506011633 7 237 3.2 8.0 0.00 0.00 0.00 48 1013.5
20260506011129 7 243 6.4 11.3 0.00 0.00 0.00 47 1013.5
20260506010628 7 245 4.8 8.0 0.00 0.00 0.00 47 1013.4
20260506010125 8 232 3.2 8.0 0.00 0.00 0.00 47 1013.4
20260506005622 8 179 4.8 12.9 0.00 0.00 0.00 47 1013.3
20260506005118 8 147 1.6 9.7 0.00 0.00 0.00 47 1013.3
20260506004615 8 253 6.4 12.9 0.00 0.00 0.00 46 1013.2
20260506004112 8 173 1.6 11.3 0.00 0.00 0.00 46 1013.2
20260506003609 8 186 4.8 14.5 0.00 0.00 0.00 45 1013.1
20260506003105 8 212 3.2 8.0 0.00 0.00 0.00 46 1013.2
20260506002600 8 246 8.0 12.9 0.00 0.00 0.00 45 1013.1
20260506002057 8 231 6.4 14.5 0.00 0.00 0.00 46 1012.8
20260506001553 8 226 4.8 9.7 0.00 0.00 0.00 44 1012.9
20260506001050 8 227 4.8 12.9 0.00 0.00 0.00 45 1013.0
20260506000548 8 249 4.8 22.5 0.00 0.00 0.00 44 1012.8
20260506000045 8 231 3.2 9.7 0.00 0.00 0.00 46 1013.0
20260505235543 8 243 0.0 8.0 0.00 0.00 0.00 45 1012.9
20260505235040 8 258 6.4 14.5 0.00 0.00 0.00 45 1012.8
20260505234537 8 247 6.4 12.9 0.00 0.00 0.00 44 1012.6
20260505234033 8 228 6.4 11.3 0.00 0.00 0.00 44 1012.9
20260505233531 8 243 3.2 3.2 0.00 0.00 0.00 45 1012.9
20260505233028 8 252 6.4 8.0 0.00 0.00 0.00 45 1012.7
20260505232526 8 217 6.4 8.0 0.00 0.00 0.00 44 1012.8
20260505232023 8 245 3.2 11.3 0.00 0.00 0.00 44 1012.8
20260505231520 8 255 4.8 8.0 0.00 0.00 0.00 44 1012.7
20260505231019 8 191 1.6 17.7 0.00 0.00 0.00 45 1012.8
20260505230516 8 236 6.4 11.3 0.00 0.00 0.00 44 1012.8
20260505230012 8 219 3.2 14.5 0.00 0.00 0.00 44 1012.6
20260505225509 8 142 3.2 9.7 0.00 0.00 0.00 44 1012.8
20260505225005 8 232 4.8 11.3 0.00 0.00 0.00 45 1012.7
20260505224502 8 146 0.0 3.2 0.00 0.00 0.00 46 1012.8
20260505223959 8 185 4.8 11.3 0.00 0.00 0.00 44 1012.5
20260505223456 8 253 8.0 12.9 0.00 0.00 0.00 44 1012.8
20260505222952 8 183 11.3 17.7 0.00 0.00 0.00 44 1012.6
20260505222449 9 211 11.3 17.7 0.00 0.00 0.00 43 1012.7
20260505221944 9 271 4.8 12.9 0.00 0.00 0.00 43 1012.7
20260505221442 8 257 9.7 12.9 0.00 0.00 0.00 43 1012.7
20260505220939 8 129 1.6 14.5 0.00 0.00 0.00 44 1012.7
20260505220436 8 211 14.5 16.1 0.00 0.00 0.00 44 1012.7
20260505215934 8 181 1.6 14.5 0.00 0.00 0.00 44 1012.8
20260505215432 8 162 9.7 14.5 0.00 0.00 0.00 44 1012.8
20260505214929 8 191 4.8 9.7 0.00 0.00 0.00 44 1012.7
20260505214427 8 158 9.7 12.9 0.00 0.00 0.00 44 1012.8
20260505213924 9 183 8.0 24.1 0.00 0.00 0.00 44 1012.9
20260505213421 8 233 4.8 20.9 0.00 0.00 0.00 44 1012.8
20260505212917 9 221 6.4 17.7 0.00 0.00 0.00 43 1012.8
20260505212414 8 183 12.9 16.1 0.00 0.00 0.00 43 1012.9
20260505211911 9 201 3.2 11.3 0.00 0.00 0.00 44 1012.9
20260505211409 8 201 6.4 11.3 0.00 0.00 0.00 43 1012.7
20260505210904 9 239 4.8 11.3 0.00 0.00 0.00 44 1012.9
20260505210402 8 268 4.8 14.5 0.00 0.00 0.00 44 1012.9
20260505205859 8 249 3.2 4.8 0.00 0.00 0.00 44 1013.0
20260505205357 9 249 4.8 11.3 0.00 0.00 0.00 43 1013.0
20260505204853 8 284 4.8 8.0 0.00 0.00 0.00 44 1012.8
20260505204351 9 214 8.0 16.1 0.00 0.00 0.00 42 1013.0
20260505203848 9 239 14.5 16.1 0.00 0.00 0.00 41 1012.8
20260505203345 8 206 9.7 22.5 0.00 0.00 0.00 43 1012.8
20260505202841 8 239 4.8 4.8 0.00 0.00 0.00 44 1013.0
20260505202337 8 185 8.0 20.9 0.00 0.00 0.00 43 1012.9
20260505201834 9 218 11.3 24.1 0.00 0.00 0.00 42 1012.8
20260505201332 8 193 3.2 14.5 0.00 0.00 0.00 43 1013.0
20260505200830 8 154 8.0 12.9 0.00 0.00 0.00 43 1013.0
20260505200326 8 157 1.6 11.3 0.00 0.00 0.00 44 1013.1
20260505195822 8 226 8.0 20.9 0.00 0.00 0.00 42 1012.9
20260505195319 8 160 4.8 16.1 0.00 0.00 0.00 43 1012.9
20260505194816 8 152 4.8 20.9 0.00 0.00 0.00 43 1012.9
20260505194314 8 212 11.3 22.5 0.00 0.00 0.00 42 1013.1
20260505193808 9 217 12.9 16.1 0.00 0.00 0.00 42 1012.9
20260505193307 8 208 9.7 20.9 0.00 0.00 0.00 43 1012.9
20260505192805 8 167 6.4 16.1 0.00 0.00 0.00 43 1012.9
20260505192305 8 239 9.7 24.1 0.00 0.00 0.00 43 1013.1
20260505191800 8 215 6.4 14.5 0.00 0.00 0.00 43 1013.1
20260505191258 8 231 8.0 16.1 0.00 0.00 0.00 42 1013.0
20260505190754 8 235 8.0 14.5 0.00 0.00 0.00 42 1013.0
20260505190249 8 255 8.0 17.7 0.00 0.00 0.00 42 1013.1
20260505185746 8 247 12.9 17.7 0.00 0.00 0.00 42 1013.3
20260505185243 8 202 6.4 14.5 0.00 0.00 0.00 42 1013.1
20260505184738 8 191 4.8 16.1 0.00 0.00 0.00 43 1013.1
20260505184236 8 182 11.3 20.9 0.00 0.00 0.00 44 1013.1
20260505183733 8 165 6.4 22.5 0.00 0.00 0.00 43 1013.1
20260505183230 8 231 6.4 14.5 0.00 0.00 0.00 43 1013.1
20260505182726 8 257 14.5 22.5 0.00 0.00 0.00 43 1013.1
20260505182224 8 253 9.7 16.1 0.00 0.00 0.00 43 1013.0
20260505181720 8 221 6.4 16.1 0.00 0.00 0.00 44 1013.1
20260505181217 9 207 4.8 9.7 0.00 0.00 0.00 42 1013.0
20260505180714 8 219 8.0 14.5 0.00 0.00 0.00 43 1013.2
20260505180211 8 222 6.4 11.3 0.00 0.00 0.00 42 1013.1
20260505175707 8 251 8.0 22.5 0.00 0.00 0.00 43 1013.0
20260505175203 8 179 4.8 11.3 0.00 0.00 0.00 42 1013.1
20260505174700 7 204 6.4 14.5 0.00 0.00 0.00 44 1012.9
20260505174156 8 162 8.0 17.7 0.00 0.00 0.00 43 1013.1
20260505173653 8 229 6.4 14.5 0.00 0.00 0.00 42 1013.0
20260505173150 8 195 6.4 9.7 0.00 0.00 0.00 43 1013.2
20260505172647 8 95 1.6 8.0 0.00 0.00 0.00 46 1013.4
20260505172144 7 268 6.4 11.3 0.00 0.00 0.00 44 1013.3
20260505171643 8 217 8.0 20.9 0.00 0.00 0.00 42 1013.2
20260505171141 8 294 4.8 9.7 0.00 0.00 0.00 41 1013.3
20260505170638 8 129 9.7 17.7 0.00 0.00 0.00 42 1013.3
20260505170134 8 238 17.7 24.1 0.00 0.00 0.00 41 1013.5
20260505165629 8 216 12.9 14.5 0.00 0.00 0.00 42 1013.4
20260505165125 8 197 6.4 22.5 0.00 0.00 0.00 42 1013.2
20260505164621 7 230 6.4 24.1 0.00 0.00 0.00 42 1013.3
20260505164119 7 167 9.7 17.7 0.00 0.00 0.00 42 1013.3
20260505163617 7 219 9.7 16.1 0.00 0.00 0.00 45 1013.3
20260505163114 6 151 4.8 8.0 0.00 0.00 0.00 45 1013.4
20260505162612 7 215 3.2 14.5 0.00 0.00 0.00 46 1013.2
20260505162109 7 9 1.6 9.7 0.00 0.00 0.00 44 1013.1
20260505161606 6 295 3.2 12.9 0.00 0.00 0.00 45 1013.4
20260505161104 6 230 6.4 12.9 0.00 0.00 0.00 45 1013.2
20260505160601 7 247 9.7 17.7 0.00 0.00 0.00 44 1013.3
20260505153038 6 183 8.0 22.5 0.00 0.00 0.00 45 1013.3
20260505152535 7 253 3.2 9.7 0.00 0.00 0.00 45 1013.1
20260505152030 6 106 1.6 11.3 0.00 0.00 0.00 47 1013.2
20260505151525 6 179 6.4 11.3 0.00 0.00 0.00 47 1013.2
20260505151023 6 256 6.4 17.7 0.00 0.00 0.00 47 1013.0
20260505150519 6 233 16.1 22.5 0.00 0.00 0.00 46 1013.0
20260505140444 5 208 6.4 11.3 0.00 0.00 0.00 48 1012.6
20260505124857 3 275 1.6 12.9 0.00 0.00 0.00 55 1012.3
20260505124355 4 219 4.8 9.7 0.00 0.00 0.00 55 1011.8
20260505123850 3 249 3.2 4.8 0.00 0.00 0.00 55 1011.8
20260505123347 3 217 3.2 9.7 0.00 0.00 0.00 57 1011.8
20260505122843 3 223 3.2 9.7 0.00 0.00 0.00 56 1011.5
20260505122341 3 210 9.7 12.9 0.00 0.00 0.00 57 1011.6
20260505121837 3 188 4.8 9.7 0.00 0.00 0.00 57 1011.6
20260505121334 3 281 6.4 8.0 0.00 0.00 0.00 58 1011.5
20260505120830 3 161 3.2 4.8 0.00 0.00 0.00 60 1011.4
20260505120327 3 197 1.6 4.8 0.00 0.00 0.00 61 1011.2
20260505115826 3 167 3.2 3.2 0.00 0.00 0.00 61 1011.3
20260505115323 3 231 3.2 8.0 0.00 0.00 0.00 62 1011.0
20260505114821 3 266 4.8 11.3 0.00 0.00 0.00 63 1011.0
20260505114317 2 194 4.8 4.8 0.00 0.00 0.00 64 1010.9
20260505113813 2 229 4.8 9.7 0.00 0.00 0.00 65 1010.7
20260505113309 2 202 3.2 4.8 0.00 0.00 0.00 65 1010.8
20260505112805 2 226 11.3 14.5 0.00 0.00 0.00 65 1010.6
20260505112305 2 229 3.2 8.0 0.00 0.00 0.00 66 1010.9
20260505111759 2 245 3.2 9.7 0.00 0.00 0.00 65 1010.5
20260505111254 2 187 1.6 4.8 0.00 0.00 0.00 65 1010.6
20260505110750 2 214 4.8 8.0 0.00 0.00 0.00 65 1010.5
20260505110248 2 242 3.2 9.7 0.00 0.00 0.00 65 1010.6
20260505101722 3 217 3.2 8.0 0.00 0.00 0.00 65 1010.5
20260505101218 3 264 3.2 11.3 0.00 0.00 0.00 66 1010.3
20260505100715 3 234 1.6 4.8 0.00 0.00 0.00 65 1010.3
20260505100212 3 248 4.8 9.7 0.00 0.00 0.00 65 1010.3
20260505095707 3 242 3.2 9.7 0.00 0.00 0.00 65 1010.1
20260505095205 3 224 11.3 14.5 0.00 0.00 0.00 65 1010.0
20260505094700 3 221 6.4 11.3 0.00 0.00 0.00 65 1010.1
20260505094157 3 308 4.8 11.3 0.00 0.00 0.00 64 1010.2
20260505093653 3 172 0.0 8.0 0.00 0.00 0.00 65 1009.9
20260505093151 3 228 1.6 4.8 0.00 0.00 0.00 65 1009.8
20260505092648 3 194 1.6 9.7 0.00 0.00 0.00 64 1009.9
20260505092147 3 247 3.2 9.7 0.00 0.00 0.00 63 1009.8
20260505091643 3 214 6.4 12.9 0.00 0.00 0.00 64 1009.9
20260505091141 3 239 4.8 9.7 0.00 0.00 0.00 64 1009.9
20260505090638 3 240 1.6 9.7 0.00 0.00 0.00 63 1010.0
20260505090137 3 199 1.6 4.8 0.00 0.00 0.00 63 1009.7
20260505085633 4 203 6.4 9.7 0.00 0.00 0.00 62 1009.7
20260505085132 4 172 3.2 12.9 0.00 0.00 0.00 62 1009.7
20260505084629 4 358 1.6 8.0 0.00 0.00 0.00 62 1009.5
20260505084128 4 256 1.6 14.5 0.00 0.00 0.00 61 1009.4
20260505083625 4 156 0.0 9.7 0.00 0.00 0.00 61 1009.2
20260505083121 4 236 4.8 8.0 0.00 0.00 0.00 60 1009.5
20260505082616 5 246 1.6 9.7 0.00 0.00 0.00 60 1009.4
20260505070827 5 215 3.2 4.8 0.00 0.00 0.00 56 1008.8
20260505070323 5 215 3.2 4.8 0.00 0.00 0.00 56 1008.8
20260505065819 5 245 4.8 11.3 0.00 0.00 0.00 55 1008.9
20260505065316 5 257 11.3 17.7 0.00 0.00 0.00 55 1008.8
20260505064813 5 224 4.8 16.1 0.00 0.00 0.00 55 1009.0
20260505064310 6 213 4.8 12.9 0.00 0.00 0.00 55 1009.0
20260505063808 6 222 8.0 16.1 0.00 0.00 0.00 55 1008.9
20260505063304 6 233 1.6 14.5 0.00 0.00 0.00 56 1009.1
20260505062800 6 199 4.8 9.7 0.00 0.00 0.00 56 1008.7
20260505062258 6 271 4.8 9.7 0.00 0.00 0.00 56 1009.0
20260505061754 6 232 3.2 14.5 0.00 0.00 0.00 54 1009.0
20260505061253 6 245 11.3 17.7 0.00 0.00 0.00 55 1009.1
20260505060750 6 216 3.2 12.9 0.00 0.00 0.00 55 1009.1
20260505060247 6 216 3.2 11.3 0.00 0.00 0.00 54 1009.1
20260505055742 6 197 9.7 12.9 0.00 0.00 0.00 54 1008.8
20260505055238 6 236 4.8 8.0 0.00 0.00 0.00 54 1009.1
20260505054736 6 238 4.8 16.1 0.00 0.00 0.00 54 1009.0
20260505054233 6 261 6.4 12.9 0.00 0.00 0.00 54 1009.0
20260505053732 6 233 4.8 9.7 0.00 0.00 0.00 54 1008.8
20260505053222 6 260 6.4 17.7 0.00 0.00 0.00 54 1008.6
20260505052719 6 173 1.6 8.0 0.00 0.00 0.00 55 1008.6
20260505052216 6 220 1.6 8.0 0.00 0.00 0.00 54 1008.8
20260505051713 6 244 4.8 8.0 0.00 0.00 0.00 54 1008.7
20260505051211 6 264 11.3 14.5 0.00 0.00 0.00 54 1008.8
20260505050709 7 255 4.8 8.0 0.00 0.00 0.00 54 1008.6
20260505050207 7 201 4.8 12.9 0.00 0.00 0.00 54 1008.4